KAITUO 1B
1 40912U 15049P   19186.43808569  .00000712  00000-0  36560-4 0  9997
2 40912  97.4489 193.5740 0016443 111.3283  22.9779 15.19614891209850
TIANWANG 1C (TW-1C)
1 40926U 15051B   19186.36795317  .00009224  00000-0  13416-3 0  9994
2 40926  97.1346 232.5221 0006555 321.1279  99.7338 15.55961053212752
TIANWANG 1B (TW-1B)
1 40927U 15051C   19186.48025619  .00009053  00000-0  13952-3 0  9994
2 40927  97.1372 231.9695 0007003 332.3867 134.6615 15.54373338212621
TIANWANG 1A (TW-1A)
1 40928U 15051D   19186.44701690  .00002736  00000-0  68579-4 0  9998
2 40928  97.1444 217.3804 0011851  20.8800  86.9547 15.40836971211752
LAPAN A2
1 40931U 15052B   19185.69451060  .00000622  00000-0 -25381-5 0  9990
2 40931   6.0001 302.4834 0013409  19.9814 340.2178 14.76608614203631
LQSAT
1 40958U 15057A   19186.27362972  .00000005  00000-0  84860-5 0  9993
2 40958  97.8980 255.0223 0018087 183.7102 176.3975 14.73082865201245
CHUBUSAT 2
1 41338U 16012B   19185.92686726 +.00000227 +00000-0 +10854-4 0  9992
2 41338 031.0042 041.5929 0014002 264.0516 095.8523 15.00155293185357
CHUBUSAT 3
1 41339U 16012C   19186.02751565  .00000200  00000-0  87251-5 0  9996
2 41339  31.0117  39.0260 0013787 272.0332  87.8724 15.00330811185361
OUFTI-1
1 41458U 16025C   19186.20105813  .00000801  00000-0  45270-4 0  9992
2 41458  98.1019 273.8829 0165290 301.8474  56.6752 15.05826238175050
E-STAR-2
1 41459U 16025D   19186.28787116  .00000622  00000-0  36527-4 0  9999
2 41459  98.1034 273.6290 0166093 302.8810  55.6520 15.05472206175048
AAUSAT 4
1 41460U 16025E   19186.24293504  .00001264  00000-0  67678-4 0  9994
2 41460  98.0974 274.8619 0156733 295.5520  62.9573 15.07355446175166
NUSAT 1
1 41557U 16033B   19186.48983747  .00000949  00000-0  38285-4 0  9992
2 41557  97.4182 273.8921 0012450 234.3507 125.6573 15.27229173172652
BEESAT 4
1 41619U 16040W   19185.87341319 +.00001007 +00000-0 +45579-4 0  9994
2 41619 097.3666 247.7953 0010440 335.0051 025.0679 15.23146209156322
PRATHAM
1 41783U 16059A   19185.87706851 +.00000041 +00000-0 +17180-4 0  9996
2 41783 098.0664 245.1010 0032888 335.3323 024.6305 14.62997749147912
ALSAT 1N
1 41789U 16059G   19186.39861826  .00000026  00000-0  14035-4 0  9993
2 41789  98.0690 247.6414 0027452 323.4111  36.5215 14.64247211148092
NAYIF 1
1 42017U 17008BX  19186.22695370  .00001119  00000-0  46943-4 0  9991
2 42017  97.4024 253.1505 0007915 107.2667 252.9438 15.25549813132444
MAX VALIER SAT
1 42778U 17036P   19185.70178099 +.00000698 +00000-0 +33490-4 0  9996
2 42778 097.3533 243.0154 0012993 160.6938 199.4794 15.22027425112676
